Location: Aalen
(48.8330°N, 10.1000°E)
Time: 08:23:24
(UTC+02:00)

Transit 2A - Pass Details

Date: 03 August 2021
Orbit: 594 x 964 km, 66.7° (Epoch: 24 September)

Event Time Altitude Azimuth Distance (km) Brightness Sun altitude
Rises 14:46:06 0° 326° (NW) 3,191 9.1 54.6°
Reaches altitude 10° 14:48:26 10° 331° (NNW) 2,320 8.5 54.3°
Maximum altitude 14:53:41 53° 49° (NE) 1,015 7.0 53.8°
Drops below altitude 10° 14:59:27 10° 125° (SE) 2,549 8.8 53.2°
Sets 15:02:08 0° 130° (SE) 3,533 9.4 53.0°
